EN

Hourly Weather 1-e Yuldybaevo

Today, 13 June, Sunday

Time Temperature Precipitation Wind Pressure Humidity
00:00 +17°C° 0.2 mm 3 mps 740 mmHg 85%
01:00 +17°C° 0.2 mm 3 mps 740 mmHg 89%
02:00 +17°C° 0.1 mm 4 mps 740 mmHg 86%
03:00 +17°C° 0.1 mm 4 mps 740 mmHg 84%
04:00 +17°C° 0.1 mm 4 mps 740 mmHg 82%
05:00 +17°C° 0 mm 4 mps 741 mmHg 77%
06:00 +17°C° 0 mm 4 mps 741 mmHg 72%
07:00 +18°C° 0 mm 4 mps 741 mmHg 66%
08:00 +19°C° 0 mm 5 mps 741 mmHg 64%
09:00 +20°C° 0 mm 5 mps 741 mmHg 62%
10:00 +21°C° 0 mm 6 mps 741 mmHg 60%
11:00 +21°C° 0 mm 6 mps 741 mmHg 61%
12:00 +21°C° 0 mm 6 mps 741 mmHg 62%
13:00 +21°C° 0 mm 6 mps 741 mmHg 63%
14:00 +22°C° 0 mm 5 mps 741 mmHg 57%
15:00 +25°C° 0 mm 5 mps 741 mmHg 51%
16:00 +26°C° 0 mm 5 mps 741 mmHg 44%
17:00 +25°C° 0 mm 5 mps 741 mmHg 49%
18:00 +23°C° 0 mm 4 mps 741 mmHg 53%
19:00 +22°C° 0 mm 4 mps 741 mmHg 58%
20:00 +22°C° 0 mm 4 mps 741 mmHg 54%
21:00 +21°C° 0 mm 4 mps 741 mmHg 51%
22:00 +21°C° 0 mm 4 mps 741 mmHg 48%
23:00 +20°C° 0 mm 4 mps 741 mmHg 49%

Tomorrow, 14 June, Monday

Time Temperature Precipitation Wind Pressure Humidity
00:00 +19°C° 0 mm 3 mps 741 mmHg 50%
01:00 +19°C° 0 mm 3 mps 741 mmHg 51%
02:00 +18°C° 0 mm 3 mps 742 mmHg 50%
03:00 +17°C° 0 mm 3 mps 742 mmHg 49%
04:00 +17°C° 0 mm 3 mps 742 mmHg 48%
05:00 +18°C° 0 mm 3 mps 742 mmHg 49%
06:00 +19°C° 0 mm 3 mps 743 mmHg 50%
07:00 +21°C° 0 mm 3 mps 743 mmHg 51%
08:00 +22°C° 0 mm 4 mps 743 mmHg 49%
09:00 +25°C° 0 mm 4 mps 743 mmHg 47%
10:00 +26°C° 0 mm 5 mps 743 mmHg 45%
11:00 +27°C° 0 mm 5 mps 743 mmHg 42%
12:00 +28°C° 0 mm 5 mps 743 mmHg 39%
13:00 +29°C° 0 mm 6 mps 743 mmHg 36%
14:00 +29°C° 0 mm 5 mps 743 mmHg 38%
15:00 +28°C° 0 mm 5 mps 743 mmHg 39%
16:00 +28°C° 0 mm 4 mps 743 mmHg 41%
17:00 +27°C° 0 mm 4 mps 742 mmHg 48%
18:00 +26°C° 0 mm 3 mps 742 mmHg 56%
19:00 +25°C° 0 mm 2 mps 742 mmHg 63%
20:00 +23°C° 0 mm 2 mps 742 mmHg 63%
21:00 +20°C° 0 mm 2 mps 742 mmHg 63%
22:00 +19°C° 0 mm 2 mps 742 mmHg 63%
23:00 +18°C° 0 mm 2 mps 742 mmHg 62%

Day after tomorrow, 15 June, Tuesday

Time Temperature Precipitation Wind Pressure Humidity
00:00 +18°C° 0 mm 2 mps 742 mmHg 61%
01:00 +17°C° 0 mm 2 mps 742 mmHg 60%
02:00 +17°C° 0 mm 2 mps 742 mmHg 60%
03:00 +18°C° 0 mm 1 mps 742 mmHg 59%
04:00 +16°C° 0 mm 1 mps 742 mmHg 59%
05:00 +19°C° 0 mm 1 mps 742 mmHg 58%
06:00 +21°C° 0 mm 1 mps 742 mmHg 57%
07:00 +23°C° 0 mm 1 mps 742 mmHg 57%
08:00 +25°C° 0 mm 2 mps 742 mmHg 51%
09:00 +26°C° 0 mm 3 mps 742 mmHg 46%
10:00 +28°C° 0 mm 3 mps 742 mmHg 41%
11:00 +29°C° 0 mm 3 mps 742 mmHg 39%
12:00 +29°C° 0 mm 3 mps 741 mmHg 38%
13:00 +30°C° 0 mm 3 mps 741 mmHg 36%
14:00 +30°C° 0 mm 3 mps 741 mmHg 37%
15:00 +30°C° 0 mm 3 mps 741 mmHg 37%
16:00 +30°C° 0 mm 3 mps 740 mmHg 38%
17:00 +29°C° 0 mm 2 mps 740 mmHg 46%
18:00 +27°C° 0 mm 2 mps 740 mmHg 54%
19:00 +26°C° 0 mm 1 mps 739 mmHg 61%
20:00 +24°C° 0 mm 1 mps 739 mmHg 61%
21:00 +22°C° 0 mm 1 mps 739 mmHg 61%
22:00 +20°C° 0 mm 2 mps 739 mmHg 61%
23:00 +19°C° 0 mm 2 mps 739 mmHg 60%

16 June, Wednesday

Time Temperature Precipitation Wind Pressure Humidity
00:00 +18°C° 0 mm 2 mps 739 mmHg 60%
01:00 +19°C° 0 mm 1 mps 739 mmHg 60%
02:00 +18°C° 0 mm 1 mps 739 mmHg 59%
03:00 +18°C° 0 mm 1 mps 739 mmHg 59%
04:00 +18°C° 0 mm 1 mps 739 mmHg 59%
05:00 +20°C° 0 mm 1 mps 739 mmHg 59%
06:00 +21°C° 0 mm 1 mps 739 mmHg 59%
07:00 +23°C° 0 mm 1 mps 739 mmHg 60%
08:00 +25°C° 0 mm 1 mps 739 mmHg 52%
09:00 +27°C° 0 mm 2 mps 739 mmHg 45%
10:00 +30°C° 0 mm 2 mps 739 mmHg 37%
11:00 +31°C° 0 mm 3 mps 739 mmHg 36%
12:00 +32°C° 0 mm 4 mps 738 mmHg 34%
13:00 +33°C° 0 mm 4 mps 738 mmHg 32%
14:00 +33°C° 0 mm 4 mps 738 mmHg 33%
15:00 +33°C° 0 mm 4 mps 738 mmHg 35%
16:00 +33°C° 0 mm 4 mps 737 mmHg 36%
17:00 +32°C° 0 mm 4 mps 737 mmHg 44%
18:00 +29°C° 0 mm 3 mps 737 mmHg 52%
19:00 +27°C° 0 mm 2 mps 736 mmHg 60%
20:00 +26°C° 0 mm 2 mps 736 mmHg 58%
21:00 +25°C° 0 mm 2 mps 736 mmHg 56%
22:00 +24°C° 0 mm 2 mps 736 mmHg 54%
23:00 +23°C° 0 mm 2 mps 735 mmHg 55%

17 June, Thursday

Time Temperature Precipitation Wind Pressure Humidity
00:00 +21°C° 0 mm 2 mps 735 mmHg 56%
01:00 +20°C° 0 mm 2 mps 735 mmHg 56%
02:00 +20°C° 0 mm 2 mps 735 mmHg 61%
03:00 +19°C° 0 mm 2 mps 735 mmHg 65%
04:00 +19°C° 0 mm 1 mps 735 mmHg 69%
05:00 +20°C° 0 mm 2 mps 735 mmHg 69%
06:00 +21°C° 0 mm 2 mps 735 mmHg 68%
07:00 +24°C° 0 mm 2 mps 734 mmHg 68%
08:00 +25°C° 0 mm 4 mps 734 mmHg 64%
09:00 +26°C° 0 mm 5 mps 734 mmHg 61%
10:00 +27°C° 0 mm 6 mps 734 mmHg 58%
11:00 +27°C° 0.1 mm 6 mps 734 mmHg 59%
12:00 +27°C° 0.1 mm 6 mps 734 mmHg 60%
13:00 +27°C° 0.1 mm 6 mps 734 mmHg 62%
14:00 +26°C° 0.4 mm 6 mps 734 mmHg 69%
15:00 +24°C° 0.4 mm 6 mps 734 mmHg 76%
16:00 +22°C° 0.4 mm 6 mps 734 mmHg 83%
17:00 +21°C° 0.2 mm 6 mps 735 mmHg 86%
18:00 +19°C° 0.2 mm 6 mps 735 mmHg 89%
19:00 +16°C° 0.2 mm 6 mps 735 mmHg 91%
20:00 +15°C° 0 mm 6 mps 736 mmHg 92%
21:00 +15°C° 0 mm 5 mps 736 mmHg 92%
22:00 +14°C° 0 mm 5 mps 736 mmHg 92%
23:00 +13°C° 0 mm 5 mps 737 mmHg 92%

18 June, Friday

Time Temperature Precipitation Wind Pressure Humidity
00:00 +12°C° 0 mm 4 mps 737 mmHg 92%
01:00 +11°C° 0 mm 4 mps 737 mmHg 92%
02:00 +10°C° 0 mm 3 mps 738 mmHg 93%
03:00 +9°C° 0 mm 3 mps 738 mmHg 93%
04:00 +9°C° 0 mm 2 mps 738 mmHg 94%
05:00 +10°C° 0 mm 4 mps 739 mmHg 83%
06:00 +10°C° 0 mm 5 mps 739 mmHg 72%
07:00 +11°C° 0 mm 6 mps 739 mmHg 61%
08:00 +13°C° 0 mm 6 mps 740 mmHg 53%
09:00 +14°C° 0 mm 7 mps 740 mmHg 46%
10:00 +16°C° 0 mm 7 mps 740 mmHg 38%
11:00 +16°C° 0 mm 7 mps 740 mmHg 36%
12:00 +17°C° 0 mm 8 mps 740 mmHg 34%
13:00 +18°C° 0 mm 8 mps 740 mmHg 31%
14:00 +18°C° 0 mm 8 mps 741 mmHg 33%
15:00 +18°C° 0 mm 8 mps 741 mmHg 34%
16:00 +18°C° 0 mm 8 mps 741 mmHg 35%
17:00 +17°C° 0 mm 7 mps 741 mmHg 41%
18:00 +16°C° 0 mm 6 mps 741 mmHg 46%
19:00 +15°C° 0 mm 5 mps 742 mmHg 51%
20:00 +14°C° 0 mm 4 mps 742 mmHg 59%
21:00 +12°C° 0 mm 3 mps 742 mmHg 66%
22:00 +11°C° 0 mm 1 mps 742 mmHg 74%
23:00 +11°C° 0 mm 1 mps 742 mmHg 78%
Show more